Location: Newark
(34.7333°N, 33.0833°E)
Time: 20:17:30
(UTC+00:00)

N. Korean satellite - Visible Passes

Search period start: 26 January 2020 00:00
Search period end: 05 February 2020 00:00
Orbit: 454 x 507 km, 97.2° (Epoch: 26 January)

Date Brightness Start Highest point End Pass type
(mag) Time Alt. Az. Time Alt. Az. Time Alt. Az.
26 Jan 6.6 03:47:17 10° N 03:50:49 56° WNW 03:54:22 10° SSW visible
26 Jan 10.0 15:54:42 10° WSW 15:56:06 12° W 15:57:31 10° WNW visible
27 Jan 7.1 03:21:47 10° NNE 03:25:21 60° E 03:28:57 10° S visible
28 Jan 8.9 02:56:45 10° NE 02:59:48 26° E 03:02:54 10° SSE visible
29 Jan 10.1 02:32:43 10° ENE 02:34:11 12° E 02:35:40 10° ESE visible
29 Jan 7.3 04:04:22 10° N 04:07:37 32° WNW 04:10:53 10° SW visible
30 Jan 6.5 03:38:34 10° N 03:42:12 75° WNW 03:45:51 10° SSW visible
30 Jan 9.8 15:45:15 10° SW 15:47:23 16° W 15:49:34 10° NW visible
31 Jan 7.8 03:13:12 10° NNE 03:16:43 45° E 03:20:14 10° S visible
01 Feb 9.4 02:48:22 10° NE 02:51:08 20° E 02:53:55 10° SE visible
01 Feb 8.0 04:21:42 10° NNW 04:24:22 20° WNW 04:27:04 10° WSW visible
02 Feb 7.0 03:55:33 10° N 03:59:01 42° WNW 04:02:30 10° SW visible
03 Feb 6.7 03:29:54 10° NNE 03:33:34 82° ESE 03:37:15 10° S visible
04 Feb 8.4 03:04:40 10° NNE 03:08:03 34° E 03:11:26 10° SSE visible
